WA8SIE Weather Reports


time (UTC)temp
F
wind
direction
speed
knots
gust
knots
rain 1hr
in
rain 24hr
in
rain mn
in
humidity
%
barometer
mb
20220812001011 75 331 0.0 0.0 0.00 0.32 0.24 77 1012.2
20220811235511 77 332 0.0 0.0 0.00 0.33 0.24 74 1012.2
20220811234510 78 332 0.0 0.0 0.00 0.33 0.24 69 1012.2
20220811234011 78 331 0.0 1.7 0.00 0.33 0.24 67 1012.0
20220811231511 80 338 0.0 1.7 0.00 0.33 0.24 63 1011.9
20220811231010 80 338 0.0 2.6 0.00 0.33 0.24 67 1011.8
20220811230511 80 338 0.0 2.6 0.00 0.33 0.24 63 1011.8
20220811230011 80 335 1.7 1.7 0.00 0.33 0.24 60 1011.8
20220811225511 80 333 0.0 1.7 0.00 0.33 0.24 60 1011.8
20220811225011 80 333 0.0 2.6 0.00 0.33 0.24 59 1011.8
20220811224511 81 333 1.7 3.5 0.00 0.33 0.24 57 1011.8
20220811223011 81 16 1.7 4.3 0.00 0.33 0.24 56 1011.8
20220811221512 81 359 2.6 4.3 0.00 0.33 0.24 53 1012.0
20220811221011 81 318 0.0 6.1 0.00 0.33 0.24 55 1012.1
20220811215511 80 342 0.0 4.3 0.00 0.33 0.24 54 1012.0
20220811215011 81 334 0.0 7.8 0.00 0.33 0.24 54 1012.0
20220811214510 81 6 3.5 7.8 0.00 0.33 0.24 51 1012.0
20220811214011 82 322 4.3 5.2 0.00 0.33 0.24 52 1012.0
20220811213010 82 323 0.9 4.3 0.00 0.33 0.24 55 1012.0
20220811210011 82 297 0.0 6.1 0.00 0.33 0.24 55 1012.1
20220811205011 81 2.6 4.3 0.00 0.33 0.24 56 1012.4
20220811204511 81 334 0.0 6.1 0.00 0.33 0.24 54 1012.4
20220811200511 82 0.9 6.1 0.00 0.33 0.24 52 1012.7
20220811200011 82 294 0.9 6.1 0.00 0.33 0.24 55 1012.7
20220811194510 83 356 2.6 6.1 0.00 0.33 0.24 53 1012.7
20220811194011 83 35 0.0 7.8 0.00 0.34 0.24 54 1012.9
20220811193010 83 333 1.7 6.1 0.00 0.34 0.24 56 1012.9
20220811192511 83 283 0.0 3.5 0.00 0.35 0.24 53 1013.1
20220811192011 82 28 2.6 3.5 0.00 0.36 0.24 51 1013.1
20220811191011 82 325 0.9 5.2 0.00 0.39 0.24 58 1013.1
20220811190511 82 295 0.0 5.2 0.00 0.42 0.24 54 1013.1
20220811190011 82 321 0.0 3.5 0.00 0.47 0.24 54 1013.1
20220811183011 80 311 0.0 4.3 0.00 0.77 0.24 58 1013.4
20220811182011 82 13 0.0 5.2 0.00 0.77 0.24 54 1013.5
20220811181011 81 42 0.0 5.2 0.00 0.77 0.24 60 1013.6
20220811180511 81 6 0.0 5.2 0.00 0.77 0.24 57 1013.6
20220811175510 82 13 0.9 3.5 0.00 0.77 0.24 56 1013.6
20220811174511 82 1.7 2.6 0.00 0.77 0.24 59 1013.6
20220811173011 80 0.9 3.5 0.00 0.77 0.24 60 1013.7
20220811172511 80 323 0.0 5.2 0.00 0.77 0.24 68 1013.8
20220811170510 81 323 0.0 4.3 0.00 0.77 0.24 61 1014.0
20220811170010 80 37 0.0 5.2 0.00 0.77 0.24 64 1014.0
20220811165011 79 6 3.5 5.2 0.00 0.77 0.24 60 1014.3
20220811164510 78 46 2.6 7.8 0.00 0.77 0.24 61 1014.3
20220811164010 77 118 4.3 7.8 0.00 0.77 0.24 65 1014.5
20220811163011 78 324 0.9 6.1 0.00 0.77 0.24 63 1014.5
20220811162511 79 358 0.0 6.1 0.00 0.77 0.24 63 1014.5
20220811162010 79 12 3.5 7.8 0.00 0.77 0.24 60 1014.5
20220811161011 80 307 0.0 4.3 0.00 0.77 0.24 64 1014.7
20220811160511 80 311 2.6 3.5 0.00 0.77 0.24 66 1014.7
20220811160011 79 96 0.0 3.5 0.00 0.77 0.24 67 1014.7
20220811154011 77 56 2.6 4.3 0.00 0.77 0.24 70 1014.9
20220811152510 77 36 0.0 4.3 0.00 0.77 0.24 74 1014.9
20220811152011 76 27 1.7 3.5 0.00 0.77 0.24 75 1014.9
20220811151511 76 33 0.0 5.2 0.00 0.77 0.24 76 1014.9
20220811151011 75 51 1.7 5.2 0.00 0.77 0.24 77 1014.8
20220811150011 75 148 0.0 3.5 0.00 0.77 0.24 78 1014.8
20220811145011 75 315 0.0 3.5 0.00 0.77 0.24 81 1014.9
20220811144511 75 20 2.6 5.2 0.00 0.77 0.24 81 1014.9
20220811143010 74 311 0.9 4.3 0.00 0.77 0.24 86 1014.9
20220811142511 73 304 1.7 5.2 0.00 0.77 0.24 87 1014.9
20220811142011 73 43 0.0 5.2 0.00 0.77 0.24 89 1014.9
20220811141510 73 21 0.0 4.3 0.00 0.77 0.24 91 1014.9
20220811140511 73 0.0 2.6 0.00 0.77 0.24 91 1014.7
20220811140011 73 327 0.0 2.6 0.00 0.77 0.24 91 1014.7
20220811135511 72 26 0.0 2.6 0.00 0.77 0.24 91 1014.8
20220811135011 72 19 0.0 1.7 0.00 0.77 0.24 92 1014.8
20220811133011 72 20 0.9 1.7 0.00 0.77 0.24 94 1014.8
20220811132510 72 20 0.0 1.7 0.00 0.77 0.24 93 1014.9
20220811131511 72 17 0.0 2.6 0.00 0.77 0.24 95 1014.9
20220811130511 72 18 0.0 2.6 0.00 0.77 0.24 96 1014.9
20220811124511 72 11 0.0 4.3 0.00 0.77 0.24 100 1014.6
20220811123011 72 6 0.0 2.6 0.00 0.77 0.24 100 1014.5
20220811122511 72 358 0.9 3.5 0.00 0.77 0.24 100 1014.4
20220811122011 72 327 0.9 3.5 0.00 0.77 0.24 100 1014.4
20220811121511 72 313 0.0 3.5 0.00 0.77 0.24 100 1014.4
20220811120510 72 312 1.7 5.2 0.00 0.77 0.24 100 1014.2
20220811120011 72 321 0.9 4.3 0.00 0.77 0.24 100 1014.2
20220811115510 72 332 0.0 0.9 0.00 0.77 0.24 100 1013.9
20220811115010 72 332 0.0 1.7 0.00 0.77 0.24 100 1013.9
20220811114512 72 332 0.0 2.6 0.00 0.77 0.24 100 1013.9
20220811114011 72 332 1.7 2.6 0.00 0.77 0.24 100 1013.8
20220811113511 72 333 0.0 0.9 0.00 0.77 0.24 100 1013.8
20220811112510 72 332 0.9 1.7 0.05 0.77 0.24 100 1013.7
20220811112011 72 332 0.0 1.7 0.06 0.77 0.24 100 1013.7
20220811111011 72 332 0.0 0.0 0.06 0.77 0.24 100 1013.5
20220811110511 72 332 0.0 0.0 0.06 0.77 0.24 100 1013.5
20220811110011 72 332 0.0 0.0 0.06 0.77 0.24 100 1013.5
20220811105511 72 332 0.0 0.9 0.06 0.77 0.24 100 1013.3
20220811105011 72 331 0.0 0.9 0.06 0.77 0.24 100 1013.3
20220811104011 72 332 0.0 1.7 0.06 0.77 0.24 100 1013.3
20220811103510 72 332 0.0 3.5 0.06 0.77 0.24 100 1013.3
20220811102011 72 216 0.0 0.0 0.00 0.71 0.18 100 1013.2
20220811101511 72 215 0.0 0.9 0.00 0.71 0.18 100 1013.2
20220811100010 72 216 0.0 0.0 0.00 0.71 0.18 100 1013.2
20220811095511 72 216 0.0 1.7 0.00 0.71 0.18 100 1013.2
20220811094511 72 216 0.0 2.6 0.01 0.71 0.18 100 1013.2
20220811093511 72 216 0.0 0.0 0.01 0.71 0.18 100 1013.2
20220811092511 72 216 0.0 0.0 0.01 0.71 0.18 100 1013.1
20220811091011 71 216 0.0 0.9 0.03 0.71 0.18 100 1013.2
20220811090011 71 216 0.0 0.0 0.03 0.71 0.18 100 1013.2
20220811085511 71 216 0.0 0.9 0.03 0.71 0.18 100 1013.2
20220811084512 71 216 0.0 0.0 0.02 0.70 0.17 100 1013.2
20220811084011 71 216 0.0 0.0 0.02 0.70 0.17 100 1013.2
20220811083511 71 216 0.0 0.0 0.02 0.70 0.17 100 1013.2
20220811083011 71 216 0.0 1.7 0.02 0.70 0.17 100 1013.2
20220811082011 71 216 0.0 2.6 0.02 0.70 0.17 100 1013.3
20220811081511 71 216 0.0 3.5 0.00 0.68 0.15 100 1013.3
20220811080011 71 221 0.0 3.5 0.00 0.68 0.15 100 1013.4
20220811075011 71 212 0.0 3.5 0.00 0.68 0.15 100 1013.5
20220811074511 71 212 0.0 3.5 0.00 0.68 0.15 100 1013.5
20220811073510 71 212 1.7 5.2 0.00 0.68 0.15 100 1013.6
20220811073011 71 212 1.7 5.2 0.09 0.68 0.15 100 1013.6
20220811072511 72 219 0.0 3.5 0.15 0.68 0.15 100 1013.6
20220811072011 71 219 0.0 3.5 0.15 0.68 0.15 100 1013.6
20220811065511 72 219 0.0 2.6 0.15 0.68 0.15 100 1013.8
20220811064511 72 219 0.0 3.5 0.15 0.68 0.15 100 1013.8
20220811064010 72 219 0.0 3.5 0.15 0.68 0.15 100 1013.8
20220811063511 72 220 0.0 2.6 0.15 0.68 0.15 100 1013.8
20220811063011 72 221 0.0 2.6 0.06 0.59 0.06 100 1013.8
20220811062511 72 221 0.0 0.0 0.01 0.54 0.01 100 1013.9
20220811060511 72 220 0.0 1.7 0.00 0.53 0.00 100 1013.8
20220811055011 72 221 0.0 3.5 0.00 0.53 0.00 100 1013.9
20220811052511 72 213 0.0 2.6 0.00 0.53 0.00 100 1014.2
20220811051511 72 213 0.0 4.3 0.00 0.53 0.00 100 1014.2
20220811050011 72 254 0.0 0.9 0.00 0.53 0.00 100 1014.1
20220811045011 72 254 0.0 1.7 0.00 0.53 0.00 100 1014.1
20220811044511 72 254 0.0 0.9 0.00 0.53 0.00 100 1014.1
20220811044010 72 254 0.0 1.7 0.00 0.53 0.00 100 1014.1
20220811043511 72 254 0.0 1.7 0.00 0.53 0.00 100 1014.1
20220811042511 72 254 0.0 0.0 0.00 0.53 0.00 100 1014.1
20220811042011 72 254 0.0 1.7 0.00 0.53 0.00 100 1014.1
20220811035511 72 254 0.0 1.7 0.00 0.53 0.53 100 1014.2
20220811035010 72 254 0.0 1.7 0.00 0.53 0.53 100 1014.2
20220811034511 72 255 0.9 1.7 0.00 0.53 0.53 100 1014.2
20220811033511 72 254 0.0 0.0 0.00 0.53 0.53 100 1014.2
20220811032510 72 254 0.0 0.0 0.00 0.53 0.53 100 1014.0
20220811031011 72 254 0.0 1.7 0.00 0.53 0.53 100 1014.1
20220811030011 72 254 0.0 0.9 0.01 0.53 0.53 100 1014.1
20220811025511 73 254 0.0 0.9 0.01 0.53 0.53 100 1014.2
20220811025011 73 254 0.0 0.9 0.01 0.53 0.53 100 1014.2
20220811023511 73 254 0.0 0.0 0.01 0.53 0.53 100 1014.3
20220811021510 73 255 0.0 0.0 0.01 0.53 0.53 99 1014.5
20220811020011 73 254 0.0 0.0 0.01 0.52 0.52 99 1014.5
20220811015511 73 254 0.0 0.0 0.01 0.52 0.52 99 1014.5
20220811012511 73 254 0.0 0.0 0.05 0.52 0.52 99 1014.6
20220811011512 73 254 0.0 0.0 0.07 0.52 0.52 98 1014.6
20220811011011 73 253 0.0 0.0 0.07 0.52 0.52 98 1014.7
20220811004510 73 254 0.0 1.7 0.06 0.50 0.50 96 1014.4
20220811003510 74 254 0.0 2.6 0.04 0.48 0.48 95 1014.7